TimeCST,TemperatureF,Dew PointF,Humidity,Sea Level PressureIn,VisibilityMPH,Wind Direction,Wind SpeedMPH,Gust SpeedMPH,PrecipitationIn,Events,Conditions,WindDirDegrees,DateUTC
12:53 AM,61.0,57.0,87,29.98,10.0,Calm,Calm,-,N/A,,Overcast,0,2012-12-08 06:53:00
1:40 AM,60.8,57.2,88,29.99,10.0,SSE,4.6,-,N/A,,Mostly Cloudy,150,2012-12-08 07:40:00
1:53 AM,61.0,57.0,87,29.98,10.0,Calm,Calm,-,N/A,,Overcast,0,2012-12-08 07:53:00
2:53 AM,61.0,55.9,83,29.97,10.0,South,5.8,-,N/A,,Overcast,180,2012-12-08 08:53:00
3:06 AM,60.8,57.2,88,29.99,10.0,Calm,Calm,-,N/A,,Overcast,0,2012-12-08 09:06:00
3:26 AM,60.8,57.2,88,29.98,10.0,South,4.6,-,N/A,,Overcast,170,2012-12-08 09:26:00
3:53 AM,61.0,57.0,87,29.98,9.0,South,4.6,-,0.00,Rain,Light Rain,180,2012-12-08 09:53:00
4:53 AM,60.8,57.2,88,30.00,10.0,SSW,3.5,-,N/A,,Overcast,200,2012-12-08 10:53:00
5:53 AM,60.1,59.0,96,30.00,6.0,South,3.5,-,0.00,Rain,Light Rain,190,2012-12-08 11:53:00
6:53 AM,60.1,59.0,96,30.01,6.0,SSW,4.6,-,0.00,,Overcast,210,2012-12-08 12:53:00
7:53 AM,60.1,57.9,93,30.02,6.0,South,4.6,-,N/A,,Overcast,170,2012-12-08 13:53:00
8:53 AM,61.0,59.0,93,30.02,6.0,SE,3.5,-,N/A,,Overcast,130,2012-12-08 14:53:00
9:53 AM,61.0,59.0,93,30.04,6.0,South,4.6,-,N/A,,Overcast,190,2012-12-08 15:53:00
10:53 AM,62.1,59.0,90,30.02,7.0,SSE,5.8,-,N/A,,Overcast,150,2012-12-08 16:53:00
11:53 AM,64.0,60.1,87,30.00,8.0,South,5.8,-,N/A,,Overcast,180,2012-12-08 17:53:00
12:53 PM,64.0,60.1,87,29.98,8.0,South,3.5,-,N/A,,Overcast,170,2012-12-08 18:53:00
1:53 PM,64.0,60.1,87,29.97,7.0,South,6.9,-,N/A,,Overcast,170,2012-12-08 19:53:00
2:53 PM,64.0,60.1,87,29.96,7.0,SSE,9.2,-,N/A,,Overcast,150,2012-12-08 20:53:00
3:46 PM,64.4,60.8,88,29.98,10.0,SE,3.5,-,N/A,,Overcast,140,2012-12-08 21:46:00
3:53 PM,64.0,60.1,87,29.97,10.0,SE,4.6,-,N/A,,Overcast,130,2012-12-08 21:53:00
4:32 PM,64.4,60.8,88,29.98,9.0,SE,4.6,-,N/A,,Overcast,140,2012-12-08 22:32:00
4:53 PM,63.0,60.1,90,29.97,9.0,Calm,Calm,-,N/A,,Overcast,0,2012-12-08 22:53:00
5:10 PM,62.6,60.8,94,29.99,9.0,Calm,Calm,-,N/A,,Scattered Clouds,0,2012-12-08 23:10:00
5:34 PM,62.6,60.8,94,29.99,9.0,Calm,Calm,-,N/A,,Overcast,0,2012-12-08 23:34:00
5:53 PM,63.0,60.1,90,29.99,8.0,Calm,Calm,-,N/A,,Mostly Cloudy,0,2012-12-08 23:53:00
6:37 PM,62.6,60.8,94,30.01,8.0,ESE,3.5,-,N/A,,Scattered Clouds,120,2012-12-09 00:37:00
6:53 PM,62.1,60.1,93,30.00,9.0,SE,3.5,-,N/A,,Clear,130,2012-12-09 00:53:00
7:35 PM,62.6,60.8,94,30.02,10.0,Calm,Calm,-,N/A,,Mostly Cloudy,0,2012-12-09 01:35:00
7:53 PM,63.0,60.1,90,30.02,10.0,Calm,Calm,-,N/A,,Overcast,0,2012-12-09 01:53:00
8:25 PM,62.6,60.8,94,30.03,9.0,Calm,Calm,-,N/A,,Overcast,0,2012-12-09 02:25:00
8:33 PM,62.6,60.8,94,30.03,9.0,ESE,3.5,-,N/A,,Overcast,120,2012-12-09 02:33:00
8:50 PM,62.6,60.8,94,30.03,10.0,SE,3.5,-,N/A,,Scattered Clouds,140,2012-12-09 02:50:00
8:53 PM,62.1,60.1,93,30.01,10.0,SSE,4.6,-,N/A,,Partly Cloudy,150,2012-12-09 02:53:00
9:38 PM,62.6,60.8,94,30.03,10.0,Calm,Calm,-,N/A,,Mostly Cloudy,0,2012-12-09 03:38:00
9:53 PM,63.0,60.1,90,30.02,10.0,Calm,Calm,-,N/A,,Overcast,0,2012-12-09 03:53:00
10:53 PM,62.1,60.1,93,30.02,10.0,Calm,Calm,-,N/A,,Mostly Cloudy,0,2012-12-09 04:53:00
11:53 PM,62.1,60.1,93,30.01,10.0,Calm,Calm,-,N/A,,Mostly Cloudy,0,2012-12-09 05:53:00